Monticello, IA

11:42 AM CDT on July 27, 2016 (GMT -0500)
Monticello Regional

Weather History for KMXO - October, 2013

Change the Weather History Date:

Friday, October 11, 2013

  Actual Average Record
Temperature  
Mean Temperature 64 °F -  
Max Temperature 77 °F 63 °F 82 °F (2015)
Min Temperature 51 °F 40 °F 26 °F (2000)
Degree Days  
Heating Degree Days 1    
Growing Degree Days 14 (Base 50)    
Moisture  
Dew Point 54 °F    
Average Humidity 69    
Maximum Humidity 100    
Minimum Humidity 44    
Precipitation  
Precipitation 0.00 in - - ()
Sea Level Pressure  
Sea Level Pressure 29.92 in    
Wind  
Wind Speed 11 mph (SE)    
Max Wind Speed 24 mph    
Max Gust Speed 33 mph    
Visibility 9 miles    
Events      
Averages and records for this station are not official NWS values.
T = Trace of Precipitation, MM = Missing Value Source: NWS Daily Summary

Daily Weather History Graph

Daily Weather History Graph

Search for Another Location

Airport or City:

Trip Planner

Search our weather history database for the weather conditions in past years. The results will help you decide how hot, cold, wet, or windy it might be!

Date:

Astronomy

Oct. 11, 2013 Rise Set
Actual Time 7:13 AM CDT 6:28 PM CDT
Civil Twilight 6:44 AM CDT 6:56 PM CDT
Nautical Twilight 6:12 AM CDT 7:29 PM CDT
Astronomical Twilight 5:39 AM CDT 8:01 PM CDT
Moon 1:58 PM CDT (10/11) No Moon Set
Length of Visible Light 12h 11m
Length of Day
11h 15m
Waxing Crescent, 47% of the Moon is Illuminated
Oct 11
Waxing Crescent
Oct 11
First Quarter
Oct 18
Full
Oct 26
Last Quarter
Nov 3
New

Hourly Weather History & Observations

Time (CDT) Temp. Dew Point Humidity Pressure Visibility Wind Dir Wind Speed Gust Speed Precip Events Conditions
12:15 AM 59.0 °F 53.6 °F 82% 29.98 in 10.0 mi SE 8.1 mph - N/A   Clear
12:35 AM 59.0 °F 53.6 °F 82% 29.98 in 10.0 mi SE 8.1 mph - N/A   Clear
12:55 AM 57.2 °F 53.6 °F 88% 29.98 in 10.0 mi SE 9.2 mph - N/A   Clear
1:15 AM 59.0 °F 53.6 °F 82% 29.97 in 10.0 mi SE 9.2 mph - N/A   Clear
1:55 AM 59.0 °F 53.6 °F 82% 29.98 in 10.0 mi SE 8.1 mph - N/A   Clear
2:15 AM 57.2 °F 53.6 °F 88% 29.98 in 10.0 mi SE 8.1 mph - N/A   Clear
2:35 AM 57.2 °F 53.6 °F 88% 29.98 in 10.0 mi SE 6.9 mph - N/A   Clear
2:55 AM 53.6 °F 51.8 °F 94% 29.98 in 10.0 mi SSE 3.5 mph - N/A   Clear
3:15 AM 53.6 °F 51.8 °F 94% 29.98 in 10.0 mi SE 3.5 mph - N/A   Clear
3:35 AM 55.4 °F 53.6 °F 94% 29.99 in 10.0 mi SE 6.9 mph - N/A   Scattered Clouds
3:55 AM 57.2 °F 53.6 °F 88% 29.98 in 10.0 mi ESE 5.8 mph - N/A   Scattered Clouds
4:15 AM 57.2 °F 53.6 °F 88% 29.98 in 10.0 mi SE 6.9 mph - N/A   Mostly Cloudy
4:35 AM 57.2 °F 53.6 °F 88% 29.97 in 10.0 mi SE 8.1 mph - N/A   Overcast
4:55 AM 57.2 °F 53.6 °F 88% 29.97 in 10.0 mi SE 9.2 mph - N/A   Mostly Cloudy
5:15 AM 57.2 °F 53.6 °F 88% 29.97 in 10.0 mi SE 9.2 mph - N/A   Overcast
5:35 AM 57.2 °F 53.6 °F 88% 29.97 in 10.0 mi SE 9.2 mph - N/A   Mostly Cloudy
5:55 AM 55.4 °F 53.6 °F 94% 29.98 in 9.0 mi SSE 10.4 mph - N/A   Partly Cloudy
6:15 AM 55.4 °F 51.8 °F 88% 29.97 in 7.0 mi SE 8.1 mph - N/A   Clear
6:35 AM 55.4 °F 53.6 °F 94% 29.98 in 6.0 mi SE 8.1 mph - N/A   Clear
6:55 AM 53.6 °F 51.8 °F 94% 29.99 in 6.0 mi SE 5.8 mph - N/A   Clear
7:15 AM 51.8 °F 51.8 °F 100% 29.99 in 3.0 mi SE 5.8 mph - N/A   Clear
7:35 AM 53.6 °F 53.6 °F 100% 29.98 in 4.0 mi SE 8.1 mph - N/A   Clear
7:55 AM 55.4 °F 53.6 °F 94% 29.99 in 5.0 mi SE 9.2 mph - N/A   Clear
8:15 AM 55.4 °F 53.6 °F 94% 29.99 in 4.0 mi SE 8.1 mph - N/A   Clear
8:35 AM 57.2 °F 53.6 °F 88% 29.98 in 5.0 mi SE 9.2 mph - N/A   Clear
8:55 AM 59.0 °F 55.4 °F 88% 29.98 in 7.0 mi SE 8.1 mph - N/A   Clear
9:15 AM 60.8 °F 57.2 °F 88% 29.98 in 9.0 mi SE 10.4 mph - N/A   Clear
9:35 AM 62.6 °F 57.2 °F 82% 29.98 in 10.0 mi SE 12.7 mph - N/A   Clear
9:55 AM 64.4 °F 57.2 °F 77% 29.97 in 10.0 mi SSE 9.2 mph - N/A   Clear
10:15 AM 66.2 °F 57.2 °F 73% 29.97 in 10.0 mi SSE 13.8 mph - N/A   Clear
10:35 AM 68.0 °F 57.2 °F 68% 29.96 in 10.0 mi SSE 16.1 mph - N/A   Clear
10:55 AM 68.0 °F 57.2 °F 68% 29.96 in 10.0 mi SE 13.8 mph 21.9 mph N/A   Clear
11:15 AM 69.8 °F 55.4 °F 60% 29.95 in 10.0 mi SSE 16.1 mph 24.2 mph N/A   Clear
11:35 AM 71.6 °F 55.4 °F 57% 29.94 in 10.0 mi SSE 17.3 mph 24.2 mph N/A   Clear
11:55 AM 71.6 °F 57.2 °F 60% 29.93 in 10.0 mi SSE 19.6 mph 27.6 mph N/A   Partly Cloudy
12:15 PM - - N/A% - 10.0 mi North - - N/A   Partly Cloudy
12:35 PM 73.4 °F 57.2 °F 57% 29.91 in 10.0 mi SSE 19.6 mph 27.6 mph N/A   Scattered Clouds
12:55 PM 73.4 °F 57.2 °F 57% - 10.0 mi North - - N/A   Unknown
1:15 PM 73.4 °F 55.4 °F 53% 29.89 in 10.0 mi SE 23.0 mph 29.9 mph N/A   Unknown
1:35 PM 73.4 °F 55.4 °F 53% 29.89 in 10.0 mi North - - N/A   Partly Cloudy
1:55 PM 75.2 °F 55.4 °F 50% 29.88 in 10.0 mi SE 20.7 mph 32.2 mph N/A   Clear
2:15 PM 75.2 °F 55.4 °F 50% 29.87 in 10.0 mi SE 23.0 mph 29.9 mph N/A   Clear
2:35 PM 75.2 °F 53.6 °F 47% 29.86 in 10.0 mi SSE 23.0 mph 33.4 mph N/A   Clear
2:55 PM 75.2 °F 53.6 °F 47% 29.84 in 10.0 mi SSE 24.2 mph 31.1 mph N/A   Clear
3:15 PM 75.2 °F 55.4 °F 50% 29.84 in 10.0 mi SE 20.7 mph - N/A   Clear
3:35 PM 77.0 °F 55.4 °F 47% 29.84 in 10.0 mi SE 17.3 mph 27.6 mph N/A   Clear
3:55 PM 77.0 °F 53.6 °F 44% 29.84 in 10.0 mi SE 19.6 mph 28.8 mph N/A   Clear
4:15 PM 77.0 °F 53.6 °F 44% 29.84 in 10.0 mi SE 23.0 mph 32.2 mph N/A   Clear
4:35 PM 75.2 °F 53.6 °F 47% 29.84 in 10.0 mi SSE 20.7 mph 28.8 mph N/A   Clear
4:55 PM 75.2 °F 51.8 °F 44% 29.84 in 10.0 mi SSE 24.2 mph 29.9 mph N/A   Clear
5:15 PM 75.2 °F 51.8 °F 44% 29.85 in 10.0 mi SSE 19.6 mph 31.1 mph N/A   Clear
5:35 PM 75.2 °F 51.8 °F 44% 29.85 in 10.0 mi SSE 15.0 mph 24.2 mph N/A   Clear
5:55 PM 73.4 °F 51.8 °F 47% 29.85 in 10.0 mi SSE 12.7 mph 23.0 mph N/A   Clear
6:15 PM 71.6 °F 53.6 °F 53% 29.86 in 10.0 mi SSE 11.5 mph 17.3 mph N/A   Clear
6:35 PM 71.6 °F 53.6 °F 53% 29.85 in 10.0 mi SE 12.7 mph - N/A   Clear
6:55 PM 69.8 °F 53.6 °F 56% 29.84 in 10.0 mi SE 11.5 mph - N/A   Clear
7:15 PM 69.8 °F 53.6 °F 56% 29.85 in 10.0 mi SE 11.5 mph 17.3 mph N/A   Clear
7:35 PM 69.8 °F 53.6 °F 56% 29.85 in 10.0 mi SE 11.5 mph 18.4 mph N/A   Scattered Clouds
7:55 PM 69.8 °F 53.6 °F 56% 29.85 in 10.0 mi SE 10.4 mph 18.4 mph N/A   Overcast
8:15 PM 69.8 °F 53.6 °F 56% 29.86 in 10.0 mi SE 10.4 mph - N/A   Overcast
8:35 PM 69.8 °F 53.6 °F 56% 29.86 in 10.0 mi SE 10.4 mph 17.3 mph N/A   Overcast
8:55 PM 69.8 °F 53.6 °F 56% 29.86 in 10.0 mi SE 8.1 mph - N/A   Overcast
9:15 PM 69.8 °F 53.6 °F 56% 29.86 in 10.0 mi SE 10.4 mph 16.1 mph N/A   Overcast
9:35 PM 69.8 °F 53.6 °F 56% 29.86 in 10.0 mi SE 10.4 mph - N/A   Overcast
9:55 PM 68.0 °F 55.4 °F 64% 29.86 in 10.0 mi SE 10.4 mph - N/A   Overcast
10:15 PM 69.8 °F 55.4 °F 60% 29.86 in 10.0 mi SE 11.5 mph - N/A   Overcast
10:35 PM 69.8 °F 53.6 °F 56% 29.85 in 10.0 mi SSE 13.8 mph - N/A   Overcast
10:55 PM 69.8 °F 53.6 °F 56% 29.86 in 10.0 mi SSE 15.0 mph - N/A   Overcast
11:15 PM 69.8 °F 53.6 °F 56% 29.86 in 10.0 mi SSE 12.7 mph - N/A   Overcast
11:35 PM 69.8 °F 53.6 °F 56% 29.85 in 10.0 mi SSE 13.8 mph 20.7 mph N/A   Overcast
11:55 PM 68.0 °F 53.6 °F 60% 29.85 in 10.0 mi SSE 16.1 mph - N/A   Overcast